パンスターズ彗星

399P/PanSTARRS (2013)

English version
Home page
Updated on February 21, 2021

---------------------------------------------------------------------

・ プロフィール

符号 399P/2013 O2
発見日 2013年7月16日
発見光度 20.6等
発見者 Pan-STARRS 1 telescope (Haleakala)

・ 写真集

・ 軌道要素

Epoch 2013 Dec. 14.0 TT = JDT 2456640.5                                         
T 2013 Dec. 16.35774 TT                                 Rudenko                 
q   2.1459963            (2000.0)            P               Q                  
n   0.13172837     Peri.  213.73773     +0.48543982     -0.86771104             
a   3.8254556      Node   207.67380     +0.84435319     +0.49702135             
e   0.4390220      Incl.   13.30603     +0.22675068     +0.00687944             
P   7.48                                                                        
From 300 observations 2013 July 16-2020 Dec. 13, mean residual 0".8.            

・ 星図

・ 光度変化

        m1 = 13.2 + 5 logΔ + 10.0 log r           [    ,-125]  (              〜2013年 8月13日)
        m1 = 13.2 + 5 logΔ + 10.0 log r(t + 250)  [-125,    ]  (2013年 8月13日〜              )

        ※ 灰色の曲線は、m1 = 13.2 + 5 logΔ + 10.0 log r の光度曲線です。

---------------------------------------------------------------------

軌道要素はM.P.E.C. 2021-A190に掲載されたものです。
星図はステラナビゲータ Ver.8 (アストロアーツ) で作成したものです。
光度グラフはComet for Windowsで作成したものです。

---------------------------------------------------------------------

Copyright(C) Seiichi Yoshida (comet@aerith.net). All rights reserved.